Regional Weather Roundup
Issued by NWS

Home | Current Version | Previous Version | Graphics & Text | Print | Product List | Glossary On
Versions: 1 2 3 4 5 6 7 8 9 10 11 12 13 14 15 16 17 18 19 20 21 22 23 24 25 26 27 28 29 30 31 32 33 34 35 36 37 38 39 40 41 42 43 44 45 46 47 48 49 50
000
ASUS43 KIND 210809
RWRIN

WEATHER ROUNDUP FOR INDIANA
NATIONAL WEATHER SERVICE INDIANAPOLIS IN
300 AM EST TUE NOV 21 2017

NOTE: "FAIR" INDICATES FEW OR NO CLOUDS BELOW 12,000 FEET WITH NO
SIGNIFICANT WEATHER AND/OR OBSTRUCTIONS TO VISIBILITY.

* - STATION DOES NOT REPORT WEATHER SUCH AS PRECIPITATION OR FOG.

+ - STATION NOT QUALITY CONTROLLED BY THE NATIONAL WEATHER SERVICE.
    USE DATA WITH CAUTION...ESPECIALLY DEWPOINT AND RELATIVE
    HUMIDITY OBSERVATIONS.

INZ001>003-010>013-019-020-210900-
NORTHWEST INDIANA

CITY           SKY/WX    TMP DP  RH WIND       PRES   REMARKS
GARY /AIRPORT/ PTCLDY    45  29  53 S14G20    29.72S
KNOX *+        MOCLDY    41  30  65 SW22G28   29.75F
LA PORTE +     CLEAR     40  29  66 SW15G21   29.74S WCI  31
MICHIGAN CITY+ CLEAR     41  30  65 S16G28    29.72S
MONTICELLO +   PTCLDY    41  26  56 S18       29.79F
RENSSELAER +   PTCLDY    41  25  52 SW20G26   29.76F
VALPARAISO     CLOUDY    43  30  60 SW20G26   29.74F

$$

LMZ046-743>745-210900-
SOUTHERN LAKE MICHIGAN

STATION/POSITION TIME  TEMP    WIND        PRES    WAVE
                       AIR SEA DIR/SP/G            HT
                 (UTC) (F)     (DEG/KT/KT) (MB)    (FT)
BURNS HARBOR     0740   44     200/ 21/ 28 1006.4F
MICHIGAN CITY    0740   43     180/ 24/ 28   N/A

$$

INZ004-005-014>016-021>024-210900-
NORTH CENTRAL INDIANA

CITY           SKY/WX    TMP DP  RH WIND       PRES   REMARKS
GOSHEN         MOCLDY    40  24  53 SW16G25   29.76F WCI  31
LOGANSPORT +   CLOUDY    37  28  70 SW16      29.82F WCI  28
PERU/GRISSOM   CLOUDY    40  26  57 SW18      29.81F WCI  31
ROCHESTER +    CLOUDY    43  28  56 SW15G24   29.80S
SOUTH BEND     PTCLDY    41  28  60 SW22G33   29.74F
WARSAW +       PTCLDY    41  27  56 SW9G18    29.79S

$$

INZ006>009-017-018-025>027-210900-
NORTHEAST INDIANA

CITY           SKY/WX    TMP DP  RH WIND       PRES   REMARKS
AUBURN +       CLOUDY    41  23  48 SW14G24   29.81S
FORT WAYNE     MOCLDY    40  27  59 SW20      29.82F WCI  30
HUNTINGTON +   CLOUDY    39  24  55 SW15G21   29.82S WCI  30
KENDALLVILLE + CLOUDY    38  26  60 SW15G21   29.78S WCI  30

$$

INZ028-029-035-036-043>045-051>053-210900-
WEST CENTRAL INDIANA

CITY           SKY/WX    TMP DP  RH WIND       PRES   REMARKS
CRAWFORDSVL +  CLOUDY    38  27  63 SW17      29.85S WCI  29
GREENCASTLE +  CLOUDY    41  23  48 SW8       29.89F
LAFAYETTE      PTCLDY    42  27  55 SW8G21    29.83F
TERRE HAUTE    CLEAR     40  25  55 S13       29.90F WCI  32

$$

INZ030>032-037>040-046>048-054>057-064-065-210900-
CENTRAL INDIANA

CITY           SKY/WX    TMP DP  RH WIND       PRES   REMARKS
CP ATTERBURY + CLEAR     37  25  60 S7        29.94S WCI  32
FRANKFORT +    CLOUDY    41  29  61 SW17      29.85F
GREENWOOD *+   CLOUDY    41  26  57 SW6       29.92S
INDIANAPOLIS   CLOUDY    38  24  57 SW12      29.90F WCI  30
-EAGLE CREEK   PTCLDY    42  23  46 SW12      29.88F
KOKOMO +       PTCLDY    39  26  59 SW16      29.84F WCI  30
MARION +       PTCLDY    35  27  71 SW16      29.85F HAZE    WCI  26
MT COMFORT *+  CLOUDY    34  28  80 S10       29.90S WCI  26
SHELBYVILLE    CLEAR     37  24  59 S13       29.92F WCI  29
ZIONSVILLE +   CLOUDY    40  25  53 SW18G25   29.87F WCI  31

$$

INZ033-034-041-042-049-050-058-059-210900-
EAST CENTRAL INDIANA

CITY           SKY/WX    TMP DP  RH WIND       PRES   REMARKS
MUNCIE         CLEAR     41  23  48 SW14G21   29.87S
RICHMOND +     CLEAR     32  27  80 S10       29.93S WCI  24

$$

INZ060-061-067>069-081>083-085>088-210900-
SOUTHWEST INDIANA

CITY           SKY/WX    TMP DP  RH WIND       PRES   REMARKS
EVANSVILLE     CLEAR     37  27  67 SW5       30.00R WCI  33
HUNTINGBURG +  CLEAR     40  26  57 S10       30.00R WCI  33
WASHINGTON +   CLEAR     38  24  56 S12       29.97R WCI  31

$$

INZ062-063-066-070>080-084-089>092-210900-
SOUTH CENTRAL AND SOUTHEAST INDIANA

CITY           SKY/WX    TMP DP  RH WIND       PRES   REMARKS
BEDFORD +      CLOUDY    37  23  56 S6        29.96R WCI  33
BLOOMINGTON    CLEAR     43  23  45 SW14G23   29.94R
MADISON *+     CLEAR     37  23  56 S6        30.00R WCI  33
NORTH VERNON + CLEAR     34  23  64 S6        29.97R WCI  29
SEYMOUR +      CLEAR     39  25  56 S8        29.97R WCI  34

$$




USA.gov is the U.S. government's official web portal to all federal, state and local government web resources and services.